2024-149BY

Last updated on Mon Sep 16 2024 00:02:03 GMT+0000 (Coordinated Universal Time)

1 60538U 24149BY 24259.47325377 .00012485 00000+0 12234-2 0 9995 2 60538 97.7476 334.4673 0002690 72.2164 287.9348 14.92393975 3920
UTC large
Height (km)
Speed (km/s)
/
Latitude / Longitude
Inclination (degrees)
Orbital Period (minutes)
Azimuth
Elevation
Range (km)
Doppler Factor

Next 0 passes for location: London (51.5072 / 0.1276)

Sorry there are no passes over London.